Location: Hohe Wand Kleine Kanzel
(47.8330°N, 16.0170°E)
Time: 16:53:43
(UTC+02:00)

Courier 1B Rocket - Pass Details

Date: 07 August 2021
Orbit: 920 x 1202 km, 28.3° (Epoch: 23 September)

Event Time Altitude Azimuth Distance (km) Brightness Sun altitude
Rises 02:50:03 0° 239° (WSW) 3,875 - -21.4°
Reaches altitude 10° 02:54:38 10° 214° (SW) 2,848 - -21.0°
Maximum altitude 02:57:32 13° 189° (S) 2,586 - -20.7°
Drops below altitude 10° 03:00:22 10° 163° (SSE) 2,759 - -20.5°
Exits shadow 03:02:28 - 148° (SSE) 3,126 7.4 -20.3°
Sets 03:04:39 0° 137° (SE) 3,648 7.8 -20.1°
